Preview of NWS' New Version of Forecast
This preview is not operational and should not be used for support decisions.

Regional Weather Roundup (RWR)

Issued by National Weather Service (NWS)

                            
000
ASUS43 KTOP 232159
RWRKS 

WEATHER ROUNDUP FOR KANSAS
NATIONAL WEATHER SERVICE GOODLAND KS
500 PM CDT THU MAY 23 2019

NOTE:  "FAIR" INDICATES FEW OR NO CLOUDS BELOW 12,000 FEET WITH NO
SIGNIFICANT WEATHER AND/OR OBSTRUCTIONS TO VISIBILITY.

KSZ001>006-013>018-027>032-041>047-232300-
NORTHWEST KANSAS
  
CITY           SKY/WX    TMP DP  RH WIND       PRES   REMARKS
GOODLAND       CLOUDY    48  45  89 E13       29.99F                  
HAYS           CLOUDY    61  53  75 E18       29.93F                  
HILL CITY      LGT RAIN  55  51  86 E13       29.98F                  
RUSSELL        CLOUDY    64  53  67 E13G24    29.93R                  
$$

KSZ061>065-074>080-084>089-232300-
SOUTHWEST KANSAS
  
CITY           SKY/WX    TMP DP  RH WIND       PRES   REMARKS
DODGE CITY     CLOUDY    63  60  90 VRB6      29.90R FOG              
GARDEN CITY    CLOUDY    53  53 100 NE9       29.91F FOG              
GREAT BEND     CLOUDY    65  60  84 E16       29.93S                  
LIBERAL        CLOUDY    59  58  96 N12       29.89F FOG              
$$

KSZ066>073-081>083-090>101-232300-
SOUTHEAST KANSAS
  
CITY           SKY/WX    TMP DP  RH WIND       PRES   REMARKS
CHANUTE        PTSUNNY   83  71  67 S18G30    29.97F                  
COFFEYVILLE    PTSUNNY   85  73  67 S12       29.95F                  
HUTCHINSON     CLOUDY    71  67  87 E14       29.90F                  
MEDICINE LODGE   N/A     73  71  93 SE7       29.89F                  
NEWTON         CLOUDY    71  68  90 E12       29.95F                  
PARSONS        SUNNY     85  73  67 S12G21    29.97F                  
WICHITA INTL   CLOUDY    79  71  76 SE12      29.92F                  
WICHITA JABRA  CLOUDY    75  71  87 E10       29.93F                  
WICHITA MCCONL CLOUDY    79  73  83 S13G18    29.93S                  
WINFIELD       PTSUNNY   80  71  74 S13       29.93F                  
$$

KSZ007>012-019>026-033>040-048>060-102>105-232300-
NORTHEAST KANSAS
  
CITY           SKY/WX    TMP DP  RH WIND       PRES   REMARKS
CONCORDIA      CLOUDY    68  53  58 E14G22    29.98F                  
EMPORIA        CLOUDY    72  68  87 E9        29.98F                  
LAWRENCE       CLOUDY    75  62  64 E7        30.01F                  
MANHATTAN      CLOUDY    72  59  63 E10       29.99F                  
OLATHE IND     CLOUDY    73  64  73 E9        30.03F                  
OLATHE EXE     CLOUDY    73  65  75 E7        30.03F                  
SALINA         CLOUDY    70  59  68 E12       29.96F                  
TOPEKA BILLARD CLOUDY    74  59  59 E9        30.01F                  
TOPEKA FORBES  CLOUDY    72  61  68 E9        30.01F                  
$$